Location: Bagnara
(41.0500°N, 14.7833°E)
Time: 15:43:01
(UTC+00:00)

FALCON 9 DEB - Pass Details

Date: 30 October 2021
Orbit: 344 x 354 km, 53.0° (Epoch: 29 November)

Event Time Altitude Azimuth Distance (km) Brightness Sun altitude
Rises 16:12:37 0° 242° (WSW) 2,152 8.8 -3.3°
Reaches altitude 10° 16:14:39 10° 248° (WSW) 1,318 7.5 -3.7°
Maximum altitude 16:17:30 49° 325° (NW) 466 3.5 -4.2°
Drops below altitude 10° 16:20:25 10° 43° (NE) 1,339 5.1 -4.7°
Enters shadow 16:21:38 - 47° (NE) 1,837 5.8 -4.9°
